{"data":{"norad_id":63822,"epoch":"2026-05-25T03:22:40.783584Z","epoch_age_seconds":60134,"freshness":"FRESH","line1":"1 63822U 25092U   26145.14074981  .00024138  00000+0  88316-3 0  9997","line2":"2 63822  42.9963  97.5708 0001007 219.9550 140.1228 15.27604772 60398","mean_motion":15.27604772,"eccentricity":0.0001007,"inclination_deg":42.9963,"raan_deg":97.5708,"arg_perigee_deg":219.955,"mean_anomaly_deg":140.1228,"bstar":0.00088316,"rev_number":6039,"period_min":94.265220061777,"perigee_km":482.28400679194,"apogee_km":483.66583473278,"semimajor_km":6861.1119207624,"source":"CELESTRAK","updated_at":"2026-05-25T13:38:20.143192Z"}}